Date,TemperatureHighF,TemperatureAvgF,TemperatureLowF,DewpointHighF,DewpointAvgF,DewpointLowF,HumidityHigh,HumidityAvg,HumidityLow,PressureMaxIn,PressureMinIn,WindSpeedMaxMPH,WindSpeedAvgMPH,GustSpeedMaxMPH,PrecipitationSumIn
2014-1-1,36.5,14.5,30.0,25.0,-44.8,-99.9,82,31,55,30.43,30.12,2,-551,0,0.00
2014-1-2,42.1,34.1,14.8,41.0,27.0,10.0,97,77,45,30.22,29.66,18,5,0,0.00
2014-1-3,16.9,11.4,5.2,9.0,0.4,-15.0,84,63,24,30.59,29.81,31,8,0,0.00
2014-1-4,33.8,21.9,12.1,34.0,10.8,-3.0,99,64,29,30.58,30.32,5,1,0,0.00
2014-1-5,41.1,37.4,33.5,41.0,37.5,33.0,100,100,98,30.31,29.74,4,1,0,0.00
2014-1-6,38.8,16.9,-6.3,39.0,12.1,-15.0,100,81,61,30.27,29.66,27,11,0,0.00
2014-1-7,18.3,2.6,-7.9,-4.0,-11.8,-17.0,69,54,24,30.66,30.27,24,8,0,0.00
2014-1-8,35.8,26.4,18.3,13.0,5.7,-9.0,54,42,29,30.65,30.53,11,2,0,0.00
2014-1-9,39.2,33.7,27.3,23.0,10.9,5.0,68,40,28,30.63,30.50,2,0,0,0.00
2014-1-10,45.5,40.8,32.2,46.0,39.2,17.0,100,94,51,30.52,30.11,2,0,0,0.00
2014-1-11,47.6,44.2,36.5,48.0,42.9,30.0,100,96,76,30.09,29.62,25,4,0,0.00
2014-1-12,42.5,36.4,30.7,29.0,24.9,17.0,83,65,39,30.24,29.73,38,6,0,0.00
2014-1-13,44.1,39.0,35.9,36.0,30.8,25.0,96,74,55,30.18,29.95,5,2,0,0.00
2014-1-14,40.6,37.8,35.2,40.0,33.1,23.0,100,84,55,30.04,29.83,13,4,0,0.00
2014-1-15,38.0,31.1,21.1,30.0,24.9,18.0,95,79,53,30.02,29.95,12,4,0,0.00
2014-1-16,31.6,22.8,14.6,18.0,12.8,9.0,88,68,43,30.14,30.00,9,2,0,0.00
2014-1-17,37.0,29.8,20.6,28.0,19.8,15.0,94,67,52,30.05,29.88,16,2,0,0.00
2014-1-18,25.3,17.7,9.2,15.0,8.8,0.0,84,68,57,30.15,29.92,20,6,0,0.00
2014-1-19,32.1,29.8,23.2,25.0,20.2,12.0,85,68,54,30.06,29.96,20,4,0,0.00
2014-1-20,46.7,40.4,32.4,23.0,17.0,5.0,55,39,24,29.95,29.83,20,7,0,0.00
2014-1-21,41.5,30.8,12.8,31.0,21.1,9.0,93,69,46,29.88,29.58,21,7,0,0.00
2014-1-22,18.4,10.8,2.8,9.0,-1.4,-8.0,85,60,34,30.23,29.88,16,6,0,0.00
2014-1-23,17.8,11.6,0.3,6.0,1.6,-8.0,77,64,50,30.56,30.17,14,5,0,0.00
2014-1-24,18.0,5.8,-5.6,-8.0,-10.1,-12.0,76,51,27,30.73,30.30,16,4,0,0.00
2014-1-25,25.3,19.1,10.4,19.0,4.0,-15.0,83,55,18,30.29,29.75,26,7,0,0.00
2014-1-26,41.8,29.7,17.5,23.0,5.0,-13.0,63,37,17,30.01,29.83,20,4,0,0.00
2014-1-27,43.5,34.5,14.1,33.0,22.8,-7.0,82,63,35,30.12,29.81,16,7,0,0.00
2014-1-28,13.8,10.2,7.2,7.0,3.1,-6.0,87,75,43,30.40,30.12,17,3,0,0.00
2014-1-29,19.4,9.4,-0.8,7.0,-4.9,-15.0,87,55,31,30.52,30.27,13,4,0,0.00
2014-1-30,26.6,17.6,8.8,7.0,-3.5,-23.0,59,41,17,30.50,30.27,5,1,0,0.00
2014-1-31,47.4,37.7,25.6,17.0,6.1,-6.0,45,28,17,30.30,30.13,11,1,0,0.00
2014-2-1,49.1,40.8,34.1,31.0,15.5,10.0,65,37,26,30.28,30.09,6,1,0,0.00
2014-2-2,58.3,48.7,40.6,47.0,39.2,24.0,89,70,51,30.12,29.97,15,2,0,0.00
2014-2-3,50.2,41.3,29.8,50.0,39.6,29.0,100,94,78,30.29,29.83,14,4,0,0.00
2014-2-4,35.8,30.7,27.0,32.0,29.5,26.0,99,95,82,30.46,30.16,3,0,0,0.00
2014-2-5,46.8,34.7,22.4,46.0,31.6,20.0,100,89,67,30.15,29.86,19,6,0,0.00
2014-2-6,32.2,24.2,17.3,20.0,17.4,14.0,92,76,56,30.43,30.12,18,5,0,0.00
2014-2-7,36.3,28.5,21.1,23.0,20.4,18.0,90,73,50,30.43,30.31,4,1,0,0.00
2014-2-8,37.8,32.3,28.8,31.0,26.4,22.0,90,79,66,30.33,30.18,7,1,0,0.00
2014-2-9,40.9,33.9,29.1,33.0,29.5,25.0,95,84,72,30.23,30.05,13,2,0,0.00
2014-2-10,31.9,27.7,22.1,29.0,25.1,20.0,95,89,82,30.32,30.08,13,3,0,0.00
2014-2-11,31.5,22.5,18.0,19.0,14.5,12.0,90,73,49,30.47,30.30,3,0,0,0.00
2014-2-12,20.5,16.4,14.6,15.0,11.4,8.0,91,80,62,30.49,30.04,5,1,0,0.00
2014-2-13,29.0,24.0,15.6,28.0,21.6,14.0,96,90,74,30.03,29.62,26,9,0,0.00
2014-2-14,45.8,35.4,26.3,29.0,21.1,14.0,78,59,30,29.86,29.69,25,8,0,0.00
2014-2-15,34.6,25.0,17.7,31.0,17.8,7.0,96,75,56,30.16,29.57,28,10,0,0.00
2014-2-16,39.9,30.0,19.4,27.0,21.6,10.0,87,72,56,30.23,30.10,17,5,0,0.00
2014-2-17,34.9,28.8,23.8,26.0,20.6,7.0,94,72,41,30.38,30.23,7,1,0,0.00
2014-2-18,52.5,39.6,27.9,34.0,22.0,9.0,96,55,19,30.31,30.11,13,3,0,0.00
2014-2-19,56.5,48.5,38.9,45.0,37.9,27.0,97,68,51,30.14,29.93,15,4,0,0.00
2014-2-20,51.3,46.6,42.3,49.0,39.3,29.0,95,77,54,30.22,29.96,4,0,0,0.00
2014-2-21,52.2,44.5,35.3,52.0,34.1,13.0,100,71,26,30.13,29.78,17,5,0,0.00
2014-2-22,55.0,43.0,35.5,22.0,15.0,8.0,52,34,18,30.26,30.09,17,4,0,0.00
2014-2-23,61.3,48.6,40.1,29.0,22.9,11.0,66,38,26,30.12,29.93,10,2,0,0.00
2014-2-24,41.6,35.3,27.9,31.0,18.3,9.0,87,54,29,30.25,29.96,15,6,0,0.00
2014-2-25,41.6,35.1,30.6,19.0,15.7,12.0,57,46,34,30.15,29.99,19,4,0,0.00
2014-2-26,32.7,26.4,19.7,18.0,14.7,9.0,70,62,50,30.03,29.89,11,4,0,0.00
2014-2-27,34.1,24.3,16.4,9.0,0.7,-10.0,63,38,22,30.08,29.87,15,7,0,0.00
2014-2-28,34.1,24.5,15.7,12.0,8.2,4.0,68,51,35,30.39,30.09,8,1,0,0.00
2014-3-1,46.4,33.9,21.3,29.0,18.8,9.0,73,55,39,30.43,30.29,5,1,0,0.00
2014-3-2,58.1,48.8,36.8,46.0,39.0,29.0,86,70,53,30.30,29.92,9,1,0,0.00
2014-3-3,50.7,34.7,17.5,48.0,33.4,16.0,98,95,87,30.32,29.80,9,2,0,0.00
2014-3-4,31.0,21.7,12.3,26.0,16.5,10.0,93,81,62,30.41,30.24,2,0,0,0.00
2014-3-5,41.2,33.0,28.4,27.0,20.5,11.0,90,63,31,30.28,30.21,2,0,0,0.00
2014-3-10,-200.0,0.0,200.0,-99.9,-99.9,-99.9,0,0,100,30.47,0.00,0,-999,0,0.00
2014-3-11,-200.0,0.0,200.0,-99.9,-99.9,-99.9,0,0,100,30.43,30.33,0,-999,0,0.00
2014-3-12,-200.0,0.0,200.0,-99.9,-99.9,-99.9,0,0,100,30.32,29.87,0,-999,0,0.00
2014-3-13,-200.0,0.0,200.0,-99.9,-99.9,-99.9,0,0,100,30.71,30.19,0,-999,0,0.00
2014-3-14,-200.0,0.0,200.0,-99.9,-99.9,-99.9,0,0,100,30.79,30.61,0,-999,0,0.00
2014-3-15,-200.0,0.0,200.0,-99.9,-99.9,-99.9,0,0,100,30.67,30.53,0,-999,0,0.00
2014-3-16,-200.0,0.0,200.0,-99.9,-99.9,-99.9,0,0,100,30.67,30.38,0,-999,0,0.00
2014-3-17,-200.0,0.0,200.0,-99.9,-99.9,-99.9,0,0,100,30.47,30.32,0,-999,0,0.00
2014-3-18,-200.0,0.0,200.0,-99.9,-99.9,-99.9,0,0,100,30.70,30.45,0,-999,0,0.00
2014-3-19,-200.0,0.0,200.0,-99.9,-99.9,-99.9,0,0,100,30.72,30.51,0,-999,0,0.00
2014-3-20,-200.0,0.0,200.0,-99.9,-99.9,-99.9,0,0,100,30.66,30.52,0,-999,0,0.00
2014-3-21,-200.0,0.0,200.0,-99.9,-99.9,-99.9,0,0,100,30.74,30.62,0,-999,0,0.00
2014-3-22,-200.0,0.0,200.0,-99.9,-99.9,-99.9,0,0,100,30.63,30.57,0,-999,0,0.00
2014-3-23,-200.0,0.0,200.0,-99.9,-99.9,-99.9,0,0,100,30.68,30.55,0,-999,0,0.00
2014-3-24,-200.0,0.0,200.0,-99.9,-99.9,-99.9,0,0,100,30.77,30.58,0,-999,0,0.00
2014-3-25,-200.0,0.0,200.0,-99.9,-99.9,-99.9,0,0,100,30.58,30.31,0,-999,0,0.00
2014-3-26,-200.0,0.0,200.0,-99.9,-99.9,-99.9,0,0,100,30.82,30.50,0,-999,0,0.00
2014-3-27,-200.0,0.0,200.0,-99.9,-99.9,-99.9,0,0,100,30.93,30.79,0,-999,0,0.00
2014-3-28,-200.0,0.0,200.0,-99.9,-99.9,-99.9,0,0,100,30.79,30.69,0,-999,0,0.00
2014-3-29,-200.0,0.0,200.0,-99.9,-99.9,-99.9,0,0,100,30.73,30.22,0,-999,0,0.00
2014-3-30,-200.0,0.0,200.0,-99.9,-99.9,-99.9,0,0,100,30.59,30.25,0,-999,0,0.00
2014-3-31,-200.0,0.0,200.0,-99.9,-99.9,-99.9,0,0,100,30.76,30.59,0,-999,0,0.00
2014-4-1,-200.0,0.0,200.0,-99.9,-99.9,-99.9,0,0,100,30.77,30.68,0,-999,0,0.00
2014-4-2,-200.0,0.0,200.0,-99.9,-99.9,-99.9,0,0,100,30.76,30.68,0,-999,0,0.00
2014-4-3,-200.0,0.0,200.0,-99.9,-99.9,-99.9,0,0,100,30.74,30.57,0,-999,0,0.00
2014-4-4,-200.0,0.0,200.0,-99.9,-99.9,-99.9,0,0,100,30.60,30.38,0,-999,0,0.00
2014-4-5,-200.0,0.0,200.0,-99.9,-99.9,-99.9,0,0,100,30.70,30.47,0,-999,0,0.00
2014-4-6,-200.0,0.0,200.0,-99.9,-99.9,-99.9,0,0,100,30.78,30.66,0,-999,0,0.00
2014-4-7,-200.0,0.0,200.0,-99.9,-99.9,-99.9,0,0,100,30.67,30.22,0,-999,0,0.00
2014-4-8,-200.0,0.0,200.0,-99.9,-99.9,-99.9,0,0,100,30.34,30.19,0,-999,0,0.00
2014-4-9,-200.0,0.0,200.0,-99.9,-99.9,-99.9,0,0,100,30.73,30.33,0,-999,0,0.00
2014-4-10,-200.0,0.0,200.0,-99.9,-99.9,-99.9,0,0,100,30.86,30.73,0,-999,0,0.00
2014-4-11,-200.0,0.0,200.0,-99.9,-99.9,-99.9,0,0,100,30.81,30.71,0,-999,0,0.00
2014-4-12,75.3,30.3,56.9,51.0,-33.3,-99.9,63,23,38,30.90,30.68,5,-546,0,0.00
2014-4-13,73.0,64.5,55.7,55.0,50.1,44.0,74,60,48,30.81,30.66,16,4,0,0.00
2014-4-14,62.0,58.3,55.9,57.0,54.5,51.0,97,87,74,30.66,30.41,12,3,0,0.01
2014-4-15,58.7,45.7,26.9,57.0,42.6,19.0,98,88,69,30.76,30.26,15,3,0,0.00
2014-4-16,51.0,35.8,22.9,24.0,18.4,15.0,72,52,28,31.18,30.77,9,2,0,0.00
2014-4-17,55.1,40.4,27.2,31.0,24.2,20.0,76,55,30,31.30,31.17,7,1,0,0.00
2014-4-18,52.8,43.7,34.3,41.0,35.0,25.0,88,72,55,31.19,30.93,3,0,0,0.00
2014-4-19,60.2,51.2,44.2,42.0,37.3,30.0,93,62,32,30.96,30.84,9,1,0,0.00
2014-4-20,66.9,52.5,40.1,39.0,33.9,27.0,86,54,23,31.00,30.90,6,1,0,0.00
2014-4-21,74.6,56.6,37.0,45.0,37.9,31.0,81,53,27,30.92,30.55,7,1,0,0.00
2014-4-22,67.8,59.5,53.5,56.0,48.6,42.0,82,68,54,30.55,30.36,9,1,0,0.00
2014-4-23,62.6,53.1,43.2,47.0,29.6,22.0,73,43,23,30.69,30.39,12,2,0,0.00
2014-4-24,65.8,51.8,34.7,40.0,33.5,26.0,78,51,35,30.80,30.62,9,1,0,0.00
2014-4-25,59.9,55.3,49.9,55.0,48.1,38.0,96,78,55,30.62,30.39,12,3,0,0.00
2014-4-26,74.0,58.9,42.6,46.0,38.7,32.0,87,53,22,30.70,30.56,10,2,0,0.00
2014-4-27,78.5,65.1,48.5,50.0,43.0,36.0,71,47,28,30.70,30.53,5,1,0,0.00
2014-4-28,65.8,57.0,52.0,59.0,53.4,49.0,98,89,56,30.61,30.51,7,0,0,0.00
2014-4-29,56.9,50.4,46.5,56.0,50.1,46.0,100,99,97,30.74,30.49,3,0,0,0.00
2014-4-30,64.3,58.0,49.5,60.0,56.4,50.0,100,94,79,30.74,30.49,14,3,0,0.00
2014-5-1,69.3,58.7,48.6,54.0,46.1,35.0,95,65,38,30.57,30.45,11,2,0,0.00
2014-5-2,64.7,53.5,41.9,40.0,35.5,31.0,74,52,30,30.62,30.52,9,1,0,0.00
2014-5-3,66.8,56.6,46.4,42.0,39.4,37.0,74,54,36,30.61,30.52,12,2,0,0.00
2014-5-4,75.4,63.7,47.7,48.0,42.5,39.0,73,48,32,30.68,30.53,9,1,0,0.00
2014-5-5,80.5,66.8,52.3,54.0,47.4,40.0,82,53,27,30.65,30.47,11,2,0,0.00
2014-5-6,81.2,69.1,56.3,53.0,47.4,41.0,85,48,25,30.64,30.42,14,2,0,0.00
2014-5-7,75.8,64.0,53.3,64.0,56.6,48.0,98,79,56,30.80,30.63,6,1,0,0.00
2014-5-8,82.8,70.0,56.5,57.0,51.4,42.0,88,56,24,30.84,30.73,6,1,0,0.00
2014-5-9,76.7,66.2,55.4,62.0,56.2,51.0,86,71,52,30.79,30.68,12,2,0,0.00
2014-5-10,69.3,63.4,58.9,61.0,56.9,52.0,94,80,61,30.78,30.66,5,1,0,0.00
2014-5-11,78.8,66.9,56.7,60.0,55.7,49.0,92,70,36,30.82,30.70,5,1,0,0.00
2014-5-12,81.2,69.2,56.5,68.0,58.9,54.0,94,71,47,30.83,30.77,9,1,0,0.00
2014-5-13,82.8,70.9,59.3,66.0,60.9,51.0,96,74,34,30.80,30.72,5,1,0,0.00
2014-5-14,77.0,68.2,59.2,66.0,60.7,57.0,98,78,55,30.79,30.66,7,1,0,0.00
2014-5-15,65.5,59.5,46.8,63.0,58.1,45.0,99,95,80,30.66,30.51,9,3,0,0.00
2014-5-16,60.9,48.8,41.5,45.0,39.8,34.0,94,72,49,30.78,30.57,11,3,0,0.00
2014-5-17,57.6,48.3,36.5,42.0,37.5,33.0,91,67,50,30.90,30.73,7,1,0,0.00
2014-5-18,62.3,50.8,41.6,48.0,41.6,37.0,91,72,52,30.95,30.84,6,1,0,0.00
2014-5-19,64.7,53.1,39.9,49.0,44.2,38.0,96,74,52,31.00,30.90,5,1,0,0.00
2014-5-20,71.8,59.6,47.9,59.0,51.7,45.0,93,76,58,30.95,30.75,7,1,0,0.00
2014-5-21,76.8,67.5,56.6,60.0,56.5,53.0,93,69,51,30.77,30.61,18,2,0,0.00
2014-5-22,76.3,67.6,58.9,63.0,58.7,54.0,96,74,56,30.64,30.55,19,2,0,0.00
2014-5-23,74.0,66.6,58.3,57.0,50.9,45.0,82,59,39,30.73,30.62,7,1,0,0.00
2014-5-24,74.4,61.9,50.1,52.0,46.7,44.0,79,59,36,30.82,30.71,5,0,0,0.00
2014-5-25,62.7,52.0,48.6,52.0,47.6,46.0,92,85,65,30.85,30.78,0,0,0,0.00
2014-6-10,94.3,86.1,72.0,74.0,70.5,68.0,89,61,46,30.03,0.00,0,0,0,0.09
2014-6-11,93.6,75.6,66.3,73.0,68.8,66.0,99,82,46,30.04,29.88,0,0,0,0.58
2014-6-12,88.2,74.4,68.1,73.0,68.9,65.0,99,84,54,30.01,29.88,0,0,0,0.02
2014-6-13,88.6,75.5,63.5,70.0,66.6,63.0,98,76,49,29.95,29.87,0,0,0,0.00
2014-6-14,91.2,75.5,64.0,66.0,60.9,52.0,94,64,31,30.14,29.95,0,0,0,0.00
2014-6-15,92.3,74.1,59.0,67.0,60.9,53.0,85,66,38,30.28,30.14,0,0,0,0.00
2014-6-16,97.3,80.1,68.6,71.0,68.8,66.0,97,71,37,30.26,30.15,0,0,0,0.00
2014-6-17,97.3,80.4,69.4,73.0,69.6,67.0,93,72,43,30.23,30.12,0,0,0,0.00
2014-6-18,99.0,82.7,69.4,74.0,69.3,64.0,96,67,33,30.19,30.10,0,0,0,0.00
2014-6-19,97.1,78.7,69.8,76.0,69.9,67.0,96,76,43,30.17,30.07,0,0,0,0.12
2014-6-20,95.9,80.3,68.6,73.0,69.4,67.0,97,72,41,30.12,29.98,0,0,0,0.00
2014-6-21,92.3,79.1,69.8,72.0,70.0,68.0,97,76,49,30.00,29.87,0,0,0,0.20
2014-6-22,88.6,76.6,68.3,71.0,68.9,68.0,98,79,53,30.05,29.91,0,0,0,0.01
2014-6-23,91.0,77.8,69.9,69.0,67.7,66.0,92,72,47,30.18,30.05,0,0,0,0.00
2014-6-24,89.0,78.3,70.3,72.0,69.0,66.0,91,74,53,30.20,30.07,0,0,0,0.00
2014-6-25,91.6,78.5,72.3,75.0,71.8,70.0,96,82,52,30.07,29.97,0,0,0,0.05
2014-6-26,94.9,79.6,67.6,71.0,68.2,65.0,98,72,40,30.08,29.98,0,0,0,0.00
2014-6-27,90.3,76.2,71.1,73.0,69.7,67.0,97,81,54,30.18,30.04,0,0,0,0.13
2014-6-28,86.5,76.2,69.6,71.0,69.4,67.0,97,81,53,30.31,30.18,0,0,0,0.01
2014-6-29,85.7,74.7,67.9,68.0,63.6,59.0,85,69,47,30.32,30.20,0,0,0,0.00
2014-6-30,92.9,77.9,65.5,73.0,67.8,63.0,93,73,46,30.19,30.01,0,0,0,0.00
2014-7-1,94.0,82.4,73.5,75.0,72.2,71.0,92,73,49,30.04,29.93,0,0,0,0.00
2014-7-2,98.7,85.6,74.2,76.0,73.4,72.0,92,69,44,30.01,29.95,0,0,0,0.00
2014-7-3,97.5,82.4,71.5,74.0,71.5,68.0,95,72,43,30.06,29.90,0,0,0,0.04
2014-7-4,90.5,75.8,64.5,69.0,59.0,52.0,93,60,31,30.26,30.00,0,0,0,0.00
2014-7-5,89.3,72.8,58.9,58.0,53.4,50.0,81,54,27,30.38,30.26,0,0,0,0.00
2014-7-6,91.8,74.6,58.6,65.0,59.7,56.0,93,63,34,30.27,30.10,0,0,0,0.00
2014-7-7,95.6,80.7,66.8,70.0,65.4,61.0,93,63,34,30.12,29.98,0,0,0,0.00
2014-7-8,97.5,81.8,71.5,71.0,68.4,62.0,93,68,34,30.08,29.93,0,0,0,0.03
2014-7-9,89.0,77.8,71.1,73.0,69.8,67.0,93,78,51,30.08,29.97,0,0,0,0.00
2014-7-10,89.7,76.7,70.8,71.0,69.9,68.0,93,81,52,30.18,30.05,0,0,0,0.02
2014-7-11,92.9,77.1,67.3,71.0,68.2,65.0,97,76,45,30.28,30.16,0,0,0,0.00
2014-7-12,98.2,80.6,68.1,72.0,67.1,61.0,96,67,31,30.29,30.18,0,0,0,0.00
2014-7-13,95.4,81.6,71.5,73.0,69.0,66.0,87,67,42,30.20,30.06,0,0,0,0.00
2014-7-14,99.0,84.1,73.0,72.0,69.4,66.0,87,64,34,30.06,29.91,0,0,0,0.00
2014-7-15,92.9,77.8,71.5,78.0,72.0,70.0,97,84,48,29.93,29.82,0,0,0,1.19
2014-7-16,87.6,73.5,64.2,71.0,62.1,52.0,97,72,34,30.02,29.87,0,0,0,0.00
2014-7-17,85.5,71.5,58.3,62.0,57.4,54.0,92,64,35,30.17,30.02,0,0,0,0.00
2014-7-18,88.4,72.2,64.0,69.0,63.0,60.0,89,75,40,30.27,30.17,0,0,0,0.01
2014-7-19,80.9,70.6,65.6,67.0,62.8,56.0,95,78,45,30.27,30.18,0,0,0,0.06
2014-7-20,78.5,71.5,64.7,71.0,67.4,64.0,97,87,75,30.21,30.12,0,0,0,0.01
2014-7-21,79.2,74.1,70.3,73.0,71.4,69.0,97,91,80,30.22,30.13,0,0,0,0.18
2014-7-22,90.1,76.0,69.8,74.0,71.1,69.0,99,86,56,30.25,30.14,0,0,0,0.00
2014-7-23,95.9,80.4,68.8,75.0,71.2,68.0,98,76,48,30.17,29.97,0,0,0,0.00
2014-7-24,91.6,77.9,68.8,75.0,71.2,68.0,97,81,50,30.03,29.88,0,0,0,0.35
2014-7-25,85.3,73.8,66.3,70.0,68.3,66.0,99,84,59,30.14,30.03,0,0,0,0.01
2014-7-26,92.3,80.6,72.3,73.0,69.6,65.0,95,71,45,30.09,29.98,0,0,0,0.00
2014-7-27,92.3,79.4,70.9,75.0,70.9,67.0,96,77,50,30.02,29.83,0,0,0,0.04
2014-7-28,90.7,77.6,67.6,71.0,64.2,56.0,97,66,37,29.96,29.82,0,0,0,0.08
2014-7-29,85.9,71.5,59.2,62.0,58.9,55.0,94,67,35,30.07,29.95,0,0,0,0.00
2014-7-30,85.3,72.0,61.2,64.0,59.3,56.0,84,66,40,30.17,30.07,0,0,0,0.00
2014-7-31,79.8,71.7,64.0,73.0,66.9,62.0,96,85,66,30.21,30.13,0,0,0,0.12
2014-8-1,68.4,66.5,64.2,68.0,65.9,63.0,98,97,96,30.23,30.16,0,0,0,1.06
2014-8-2,72.5,66.8,62.6,68.0,65.0,62.0,99,94,82,30.23,30.15,0,0,0,0.00
2014-8-3,87.4,73.4,63.5,70.0,66.7,63.0,99,81,48,30.19,30.09,0,0,0,0.00
2014-8-4,87.4,75.4,65.3,70.0,67.1,64.0,98,77,49,30.18,30.09,0,0,0,0.01
2014-8-5,92.5,76.8,66.0,71.0,67.8,65.0,98,77,43,30.14,30.04,0,0,0,0.02
2014-8-6,91.0,77.5,65.2,70.0,67.1,63.0,96,73,43,30.07,29.98,0,0,0,0.00
2014-8-7,89.3,76.9,66.8,69.0,66.9,65.0,96,74,45,30.09,29.98,0,0,0,0.00
2014-8-8,75.1,71.2,67.6,73.0,69.2,66.0,97,93,88,30.20,30.09,0,0,0,0.07
2014-8-9,70.6,67.8,65.0,70.0,66.8,64.0,98,96,91,30.20,30.11,0,0,0,0.08
2014-8-10,70.8,68.1,65.3,70.0,67.5,65.0,98,97,95,30.20,30.13,0,0,0,0.06
2014-8-11,73.7,70.8,69.3,73.0,70.2,69.0,99,98,96,30.16,30.03,0,0,0,0.85
2014-8-12,85.7,75.2,70.3,78.0,73.1,70.0,99,94,71,30.03,29.85,0,0,0,0.22
2014-8-13,81.6,71.8,63.5,71.0,64.1,59.0,99,79,52,30.08,29.89,0,0,0,0.00
2014-8-14,87.2,70.9,56.7,64.0,60.3,56.0,98,72,43,30.13,30.02,0,0,0,0.00
2014-8-15,88.4,73.8,60.7,68.0,64.0,60.0,98,74,47,30.11,30.01,0,0,0,0.00
2014-8-16,90.5,75.6,65.2,68.0,64.8,61.0,97,72,41,30.12,30.04,0,0,0,0.00
2014-8-17,88.2,76.7,67.3,73.0,68.7,65.0,93,78,50,30.09,30.00,0,0,0,0.00
2014-8-18,85.3,74.9,71.5,76.0,72.3,70.0,99,92,73,30.01,29.85,0,0,0,0.75
2014-8-19,90.7,76.9,67.3,75.0,71.5,67.0,99,85,55,29.96,29.85,0,0,0,0.01
2014-8-20,91.4,78.3,70.1,75.0,72.1,70.0,99,83,52,30.08,29.94,0,0,0,0.00
2014-8-21,91.2,79.4,69.4,73.0,71.1,68.0,98,78,51,30.17,30.04,0,0,0,0.00
2014-8-22,92.5,79.5,68.8,75.0,71.9,67.0,97,79,55,30.11,29.99,0,0,0,0.00
2014-8-23,93.4,80.5,72.0,75.0,72.2,70.0,94,77,52,30.03,29.95,0,0,0,0.01
2014-8-24,80.3,74.4,69.6,73.0,67.8,65.0,94,80,64,30.17,30.01,0,0,0,0.01
2014-8-25,84.3,71.0,60.7,65.0,61.4,59.0,98,74,44,30.21,30.15,0,0,0,0.00
2014-8-26,86.1,70.6,59.0,63.0,60.7,58.0,97,74,41,30.25,30.16,0,0,0,0.00
2014-8-27,91.4,73.7,58.1,65.0,62.1,57.0,98,71,38,30.18,30.05,0,0,0,0.00
2014-8-28,94.9,78.8,66.4,73.0,68.6,64.0,93,74,44,30.09,30.01,0,0,0,0.00
2014-8-29,84.3,76.4,70.8,72.0,69.1,63.0,92,79,63,30.22,30.07,0,0,0,0.00
2014-8-30,93.6,80.1,72.1,73.0,71.3,69.0,96,77,45,30.27,30.15,0,0,0,0.00
2014-8-31,94.0,81.0,73.2,74.0,71.6,70.0,90,74,49,30.24,30.10,0,0,0,0.00
2014-9-1,94.7,81.2,71.5,73.0,70.6,65.0,96,73,38,30.16,30.08,0,0,0,0.00
2014-9-2,97.1,80.9,69.8,74.0,70.7,69.0,96,74,40,30.13,29.99,0,0,0,0.00
2014-9-3,92.3,79.4,68.3,71.0,69.2,66.0,96,73,47,30.18,30.02,0,0,0,0.00
2014-9-4,89.5,76.6,71.3,76.0,71.8,70.0,98,86,58,30.24,30.15,0,0,0,0.11
2014-9-5,89.0,75.6,69.1,75.0,72.0,69.0,99,89,61,30.27,30.14,0,0,0,0.05
2014-9-6,93.6,77.2,68.8,75.0,71.2,69.0,99,84,47,30.15,29.99,0,0,0,0.03
2014-9-7,85.1,75.0,68.8,71.0,68.9,67.0,98,82,60,30.17,30.02,0,0,0,0.00
2014-9-8,72.8,67.5,62.7,67.0,64.9,62.0,96,91,79,30.23,30.15,0,0,0,0.08
2014-9-9,78.6,69.9,63.4,69.0,65.5,62.0,96,86,70,30.23,30.14,0,0,0,0.01
2014-9-10,82.4,72.0,64.8,69.0,67.3,64.0,98,86,63,30.22,30.09,0,0,0,0.00
2014-9-11,92.1,76.9,66.1,73.0,69.4,65.0,98,80,52,30.12,29.98,0,0,0,0.00
2014-9-12,82.2,75.4,70.6,73.0,70.0,65.0,96,84,71,30.16,30.03,0,0,0,0.00
2014-9-13,82.0,71.2,65.5,73.0,66.6,58.0,98,86,69,30.28,30.11,0,0,0,0.20
2014-9-14,73.5,66.2,63.1,60.0,58.3,56.0,89,76,58,30.37,30.26,0,0,0,0.00
2014-9-15,76.0,68.2,61.8,66.0,62.9,59.0,94,84,68,30.31,30.18,0,0,0,0.00
2014-9-16,87.4,73.7,67.6,69.0,66.7,64.0,96,81,49,30.18,29.99,0,0,0,0.01
2014-9-17,77.9,68.2,62.3,66.0,61.8,57.0,93,80,62,30.09,29.99,0,0,0,0.00
2014-9-18,82.6,69.2,61.2,66.0,63.4,60.0,98,83,50,30.12,30.00,0,0,0,0.00
2014-9-19,78.3,69.1,63.2,65.0,63.1,61.0,93,82,56,30.32,30.12,0,0,0,0.00
2014-9-20,84.5,69.2,59.9,62.0,59.8,57.0,98,76,40,30.32,30.11,0,0,0,0.00
2014-9-21,88.0,70.5,57.3,70.0,62.9,56.0,97,80,48,30.11,29.87,0,0,0,0.04
2014-9-22,79.0,66.2,54.4,67.0,56.6,53.0,97,74,43,30.25,29.95,0,0,0,0.00
2014-9-23,61.0,58.6,55.7,54.0,50.3,48.0,86,74,64,30.43,30.24,0,0,0,0.00
2014-9-24,65.0,59.6,54.8,60.0,55.2,49.0,97,85,71,30.45,30.33,0,0,0,0.08
2014-9-25,71.6,64.8,60.7,65.0,61.9,60.0,98,91,77,30.35,30.25,0,0,0,0.05
2014-9-26,72.8,66.0,60.1,64.0,62.3,59.0,97,88,71,30.33,30.24,0,0,0,0.01
2014-9-27,78.8,65.3,56.3,60.0,58.1,55.0,99,80,44,30.33,30.24,0,0,0,0.00
2014-9-28,77.2,64.3,54.4,64.0,59.1,54.0,99,85,54,30.29,30.16,0,0,0,0.00
2014-9-29,67.9,64.4,60.4,66.0,62.8,60.0,98,95,90,30.15,30.04,0,0,0,0.09
2014-9-30,84.1,68.7,60.5,66.0,62.5,60.0,99,83,45,30.05,29.92,0,0,0,0.00
2014-10-1,79.2,66.3,58.0,66.0,62.4,58.0,99,88,60,30.13,29.98,0,0,0,0.00
2014-10-2,84.9,68.4,59.3,68.0,62.9,59.0,99,84,53,30.20,30.10,0,0,0,0.00
2014-10-3,77.7,68.0,60.1,70.0,65.2,60.0,99,91,59,30.11,29.81,0,0,0,0.26
2014-10-4,69.9,59.9,43.1,69.0,48.5,32.0,97,70,30,30.01,29.79,0,0,0,0.00
2014-10-5,65.8,50.2,37.8,42.0,38.5,36.0,97,69,34,30.12,29.97,0,0,0,0.00
2014-10-6,75.1,58.3,42.3,53.0,46.8,41.0,97,69,41,30.15,30.04,0,0,0,0.00
2014-10-7,77.2,65.7,57.6,60.0,55.3,50.0,90,70,52,30.19,30.03,0,0,0,0.01
2014-10-8,84.1,68.9,58.3,63.0,56.7,51.0,92,68,36,30.15,30.01,0,0,0,0.00
2014-10-9,82.2,65.0,52.5,58.0,52.9,49.0,92,69,35,30.25,30.14,0,0,0,0.00
2014-10-10,83.6,68.2,56.3,68.0,62.7,55.0,98,84,53,30.17,30.02,0,0,0,0.11
2014-10-11,79.4,68.4,60.1,71.0,65.5,57.0,99,91,70,30.19,30.00,0,0,0,0.05
2014-10-12,59.9,56.6,55.1,57.0,55.4,53.0,98,95,84,30.33,30.18,0,0,0,0.01
2014-10-13,68.4,61.4,56.6,66.0,60.8,56.0,99,97,90,30.34,30.22,0,0,0,0.01
2014-10-14,81.6,73.5,64.8,70.0,68.0,64.0,99,84,57,30.21,29.88,0,0,0,0.01
2014-10-15,73.9,63.1,54.4,69.0,57.4,51.0,98,83,53,29.94,29.85,0,0,0,0.00
2014-10-16,70.1,58.1,51.7,55.0,52.5,50.0,98,83,57,29.96,29.85,0,0,0,0.00
2014-10-17,74.0,58.6,46.7,55.0,51.1,46.0,99,79,48,30.01,29.87,0,0,0,0.00
2014-10-18,71.1,59.7,49.8,57.0,50.2,46.0,99,74,43,30.02,29.84,0,0,0,0.01
2014-10-19,53.3,14.1,45.4,47.0,12.5,42.0,90,23,73,30.21,30.03,0,0,0,0.00
2014-10-20,-200.0,0.0,200.0,-99.9,0.0,200.0,0,0,100,30.21,30.04,0,0,0,0.00
2014-10-21,-200.0,0.0,200.0,-99.9,0.0,200.0,0,0,100,30.06,29.93,0,0,0,0.00
2014-10-22,-200.0,0.0,200.0,-99.9,0.0,200.0,0,0,100,30.14,30.03,0,0,0,0.00
2014-10-23,-200.0,0.0,200.0,-99.9,0.0,200.0,0,0,100,30.13,30.04,0,0,0,0.00
2014-10-24,-200.0,0.0,200.0,-99.9,0.0,200.0,0,0,100,30.14,30.04,0,0,0,0.00
2014-10-25,-200.0,0.0,200.0,-99.9,0.0,200.0,0,0,100,30.11,29.97,0,0,0,0.00
2014-10-26,-200.0,0.0,200.0,-99.9,0.0,200.0,0,0,100,30.06,29.93,0,0,0,0.00
2014-10-27,-200.0,0.0,200.0,-99.9,0.0,200.0,0,0,100,30.20,30.06,0,0,0,0.00
2014-10-28,-200.0,0.0,200.0,-99.9,0.0,200.0,0,0,100,30.21,30.09,0,0,0,0.00
2014-10-29,-200.0,0.0,200.0,-99.9,0.0,200.0,0,0,100,30.10,30.01,0,0,0,0.00
2014-10-30,-200.0,0.0,200.0,-99.9,0.0,200.0,0,0,100,30.15,30.04,0,0,0,0.00
2014-10-31,-200.0,0.0,200.0,-99.9,0.0,200.0,0,0,100,30.06,29.86,0,0,0,0.00
2014-11-1,-200.0,0.0,200.0,-99.9,0.0,200.0,0,0,100,30.07,29.79,0,0,0,0.00
2014-11-2,51.3,10.6,48.8,27.0,5.0,21.0,41,8,31,30.41,30.07,0,0,0,0.01
2014-11-3,-200.0,0.0,200.0,-99.9,0.0,200.0,0,0,100,30.50,30.38,0,0,0,0.00
2014-11-4,40.8,0.4,40.8,37.0,0.4,37.0,87,1,87,30.43,30.28,0,0,0,0.00
2014-11-5,58.9,5.7,47.9,43.0,4.4,41.0,79,7,55,30.37,30.19,0,0,0,0.00
2014-11-6,-200.0,0.0,200.0,-99.9,0.0,200.0,0,0,100,30.19,29.80,0,0,0,0.00
2014-11-7,-200.0,0.0,200.0,-99.9,0.0,200.0,0,0,100,30.12,29.94,0,0,0,0.00
2014-11-8,-200.0,0.0,200.0,-99.9,0.0,200.0,0,0,100,30.15,30.01,0,0,0,0.00
2014-11-9,-200.0,0.0,200.0,-99.9,0.0,200.0,0,0,100,30.10,29.98,0,0,0,0.00
2014-11-10,-200.0,0.0,200.0,-99.9,0.0,200.0,0,0,100,30.18,30.09,0,0,0,0.00
2014-11-11,-200.0,0.0,200.0,-99.9,0.0,200.0,0,0,100,30.14,29.98,0,0,0,0.00
2014-11-12,-200.0,0.0,200.0,-99.9,0.0,200.0,0,0,100,30.11,29.98,0,0,0,0.00
2014-11-13,-200.0,0.0,200.0,-99.9,0.0,200.0,0,0,100,30.14,30.02,0,0,0,0.00
2014-11-14,-200.0,0.0,200.0,-99.9,0.0,200.0,0,0,100,30.39,30.14,0,0,0,0.00
2014-11-15,-200.0,0.0,200.0,-99.9,0.0,200.0,0,0,100,30.51,30.39,0,0,0,0.00
2014-11-16,-200.0,0.0,200.0,-99.9,0.0,200.0,0,0,100,30.41,30.09,0,0,0,0.00
2014-11-17,-200.0,0.0,200.0,-99.9,0.0,200.0,0,0,100,30.08,29.68,0,0,0,0.00
2014-11-18,-200.0,0.0,200.0,-99.9,0.0,200.0,0,0,100,30.36,29.96,0,0,0,0.00
2014-11-19,-200.0,0.0,200.0,-99.9,0.0,200.0,0,0,100,30.43,30.23,0,0,0,0.00
2014-11-20,-200.0,0.0,200.0,-99.9,0.0,200.0,0,0,100,30.24,30.06,0,0,0,0.00
2014-11-21,-200.0,0.0,200.0,-99.9,0.0,200.0,0,0,100,30.58,30.21,0,0,0,0.00
2014-11-22,-200.0,0.0,200.0,-99.9,0.0,200.0,0,0,100,30.61,30.36,0,0,0,0.00
2014-11-23,-200.0,0.0,200.0,-99.9,0.0,200.0,0,0,100,30.36,29.75,0,0,0,0.00
2014-11-24,73.0,12.7,70.3,57.0,9.9,55.0,64,10,54,29.96,29.73,0,0,0,0.00
2014-11-25,-200.0,0.0,200.0,-99.9,0.0,200.0,0,0,100,30.16,29.92,0,0,0,0.00
2014-11-26,-200.0,0.0,200.0,-99.9,0.0,200.0,0,0,100,30.12,29.99,0,0,0,0.00
2014-11-27,-200.0,0.0,200.0,-99.9,0.0,200.0,0,0,100,30.35,30.01,0,0,0,0.00
2014-11-28,-200.0,0.0,200.0,-99.9,0.0,200.0,0,0,100,30.43,30.31,0,0,0,0.00
2014-11-29,-200.0,0.0,200.0,-99.9,0.0,200.0,0,0,100,30.35,30.25,0,0,0,0.00
2014-11-30,-200.0,0.0,200.0,-99.9,0.0,200.0,0,0,100,30.36,30.25,0,0,0,0.00
2014-12-1,-200.0,0.0,200.0,-99.9,0.0,200.0,0,0,100,30.42,30.31,0,0,0,0.00
2014-12-2,41.1,8.1,40.5,39.0,7.6,38.0,91,18,90,30.55,30.35,0,0,0,0.00
2014-12-3,-200.0,0.0,200.0,-99.9,0.0,200.0,0,0,100,30.43,30.23,0,0,0,0.00
2014-12-4,56.2,17.4,45.4,43.0,13.7,36.0,72,21,61,30.49,30.32,0,0,0,0.00
2014-12-5,-200.0,0.0,200.0,-99.9,0.0,200.0,0,0,100,30.54,30.41,0,0,0,0.00
2014-12-6,46.1,2.4,44.8,45.0,2.3,44.0,96,5,95,30.40,30.09,0,0,0,0.00
2014-12-7,53.9,15.3,43.3,33.0,7.7,19.0,67,12,28,30.53,30.22,0,0,0,0.00
2014-12-8,-200.0,0.0,200.0,-99.9,0.0,200.0,0,0,100,30.53,30.24,0,0,0,0.00
2014-12-9,54.2,14.8,38.0,43.0,11.9,36.0,98,22,56,30.23,29.98,0,0,0,0.00
2014-12-10,-200.0,0.0,200.0,-99.9,0.0,200.0,0,0,100,30.09,30.03,0,0,0,0.00
2014-12-11,-200.0,0.0,200.0,-99.9,0.0,200.0,0,0,100,30.20,30.04,0,0,0,0.00
2014-12-12,56.5,14.1,43.6,20.0,4.8,17.0,36,7,21,30.31,30.18,0,0,0,0.00
2014-12-13,-200.0,0.0,200.0,-99.9,0.0,200.0,0,0,100,30.23,30.10,0,0,0,0.00
2014-12-14,-200.0,0.0,200.0,-99.9,0.0,200.0,0,0,100,30.13,30.06,0,0,0,0.00
2014-12-15,-200.0,0.0,200.0,-99.9,0.0,200.0,0,0,100,30.18,30.09,0,0,0,0.00
2014-12-16,-200.0,0.0,200.0,-99.9,0.0,200.0,0,0,100,30.11,29.92,0,0,0,0.00
2014-12-17,-200.0,0.0,200.0,-99.9,0.0,200.0,0,0,100,30.18,30.06,0,0,0,0.00
2014-12-18,-200.0,0.0,200.0,-99.9,0.0,200.0,0,0,100,30.24,30.13,0,0,0,0.00
2014-12-19,-200.0,0.0,200.0,-99.9,0.0,200.0,0,0,100,30.25,30.15,0,0,0,0.00
2014-12-20,-200.0,0.0,200.0,-99.9,0.0,200.0,0,0,100,30.34,30.25,0,0,0,0.00
2014-12-21,-200.0,0.0,200.0,-99.9,0.0,200.0,0,0,100,30.36,30.26,0,0,0,0.00
2014-12-22,-200.0,0.0,200.0,-99.9,0.0,200.0,0,0,100,30.27,30.08,0,0,0,0.00
2014-12-23,-200.0,0.0,200.0,-99.9,0.0,200.0,0,0,100,30.14,29.96,0,0,0,0.00
2014-12-24,-200.0,0.0,200.0,-99.9,0.0,200.0,0,0,100,29.98,29.70,0,0,0,0.00
2014-12-25,-200.0,0.0,200.0,-99.9,0.0,200.0,0,0,100,30.31,29.73,0,0,0,0.00
2014-12-26,-200.0,0.0,200.0,-99.9,0.0,200.0,0,0,100,30.41,30.30,0,0,0,0.00
2014-12-27,-200.0,0.0,200.0,-99.9,0.0,200.0,0,0,100,30.37,30.22,0,0,0,0.00
2014-12-28,-200.0,0.0,200.0,-99.9,0.0,200.0,0,0,100,30.21,30.04,0,0,0,0.00
2014-12-29,-200.0,0.0,200.0,-99.9,0.0,200.0,0,0,100,30.25,30.10,0,0,0,0.00
2014-12-30,-200.0,0.0,200.0,-99.9,0.0,200.0,0,0,100,30.49,30.24,0,0,0,0.00
2014-12-31,-200.0,0.0,200.0,-99.9,0.0,200.0,0,0,100,30.52,30.40,0,0,0,0.00
2015-1-1,-200.0,0.0,200.0,-99.9,0.0,200.0,0,0,100,30.39,30.24,0,0,0,0.00
2015-1-2,54.4,5.1,53.8,40.0,3.6,38.0,61,5,54,30.42,30.26,0,0,0,0.00